[[{"header":{"parameterUnit":"m.s-1","parameterCategory":1,"la1":30.2991,"la2":30.254,"lo1":-89.0895,"lo2":-89.0444,"dy":0.0017,"dx":0.0017,"nx":28,"ny":28,"refTime":"2025-01-01T03:00:00:Z","depth":0,"parameterNumber":2,"parameterNumberName":"U-component_of_WINDS"},"data":[0,0,0,0,0,0,0,0,0,0,0,0,0,0,0,0,0,0,0,0,0,0,0,0,0,0,0,0,0,0,0,0,0,0,0,0,0,0,0,0,0,0,0,0,0,0,0,0,0,0,0,0,0,0,0,0,0,0,3.6259,3.6259,0,3.6291,3.6291,3.6292,3.6268,3.6267,3.6266,3.6265,3.63,3.6302,3.6304,0,0,0,0,0,0,0,0,0,0,0,0,0,3.618,3.6182,3.6259,3.6259,3.626,3.6291,3.6291,3.6292,3.6268,3.6267,3.6266,3.6264,3.63,3.6302,3.6304,0,0,0,0,0,0,0,0,0,0,0,0,0,3.6214,3.6182,3.6259,3.6251,3.6251,3.6291,3.6291,3.6292,3.6268,3.6267,3.6265,3.6264,3.6299,3.6302,3.6304,3.6354,0,0,3.6313,3.6315,0,0,0,0,0,0,0,0,3.6212,3.6217,3.6252,3.6252,3.6252,3.6274,3.6277,3.6313,3.6269,3.6262,3.6265,3.6263,3.6293,3.6296,3.6306,3.6355,3.6357,3.6314,3.6315,3.6317,3.6317,0,0,0,0,0,0,0,3.621,3.6215,3.6272,3.6253,3.6252,3.6248,3.6251,3.6283,3.6286,3.6262,3.6261,3.6265,3.6292,3.6303,3.6306,3.6357,3.6313,3.6316,3.6318,3.6319,3.6453,3.6454,0,0,0,0,0,0,3.6208,3.6213,3.627,3.6272,3.6227,3.6251,3.6254,3.6268,3.6285,3.6286,3.6266,3.6264,3.6299,3.6303,3.6308,3.6369,3.6317,3.6319,3.6321,3.6451,3.6453,3.6455,0,0,0,0,0,0,3.6206,3.6213,3.6269,3.6243,3.6249,3.6253,3.627,3.627,3.628,3.6288,3.6289,3.6276,3.6298,3.6303,3.6343,3.6369,3.632,3.6323,3.6449,3.6451,3.6454,3.649,0,0,0,0,0,0,3.6204,3.6212,3.623,3.6243,3.6251,3.6303,3.6271,3.6272,3.6285,3.6282,3.6298,3.6299,3.6297,3.6339,3.6346,3.6373,3.6325,3.6446,3.645,3.6453,3.6486,3.6493,3.65,0,0,0,0,0,3.6201,3.6239,3.6231,3.6238,3.6273,3.6305,3.6309,3.6305,3.6287,3.6306,3.6312,3.6298,3.6365,3.6343,3.6351,3.6379,3.6445,3.6449,3.6453,3.6483,3.6492,3.6499,0,0,0,0,0,0,3.6229,3.624,3.6232,3.6275,3.6289,3.63,3.6324,3.6314,3.6334,3.6331,3.6326,3.633,3.6372,3.6379,3.6354,3.6429,3.6402,3.6408,3.6423,3.6431,3.6438,3.6436,3.6328,0,0,0,0,0,3.624,3.6264,3.6273,3.631,3.6317,3.632,3.6333,3.6329,3.6344,3.635,3.6358,3.6374,3.6399,3.6415,3.6438,3.6487,3.6492,3.651,3.6517,3.6522,3.6528,3.6557,3.6566,3.6468,3.6468,3.6468,0,0,3.6264,3.6273,3.6288,3.6316,3.6326,3.6353,3.6325,3.6353,3.6373,3.6354,3.6393,3.64,3.6417,3.6462,3.6482,3.6469,3.6556,3.6527,3.6532,3.6534,3.6562,3.6572,3.658,3.6471,3.6471,3.647,0,0,3.632,3.6328,3.6361,3.6373,3.6389,3.639,3.6398,3.6412,3.6416,3.6454,3.6441,3.6466,3.6507,3.6521,3.6534,3.6598,3.6587,3.6605,3.664,3.6669,3.6677,3.6684,3.6709,3.6718,3.661,3.661,3.6611,0,3.6347,3.6385,3.638,3.641,3.6424,3.6407,3.6442,3.6454,3.6477,3.6488,3.6472,3.6526,3.6537,3.6586,3.6602,3.6612,3.6623,3.6604,3.6676,3.6683,3.6689,3.6713,3.6722,3.6613,3.6612,3.6612,3.6612,0,3.642,3.6446,3.6471,3.6494,3.6511,3.6543,3.6544,3.6561,3.6556,3.656,3.6601,3.6612,3.6639,3.665,3.6645,3.67,3.6691,3.6676,3.6649,3.6701,3.6723,3.6732,3.6616,3.6615,3.6614,3.6614,0,0,3.6494,3.6515,3.6524,3.6536,3.6553,3.6575,3.6607,3.6633,3.6649,3.6666,3.6695,3.6731,3.6718,3.6732,3.6729,3.6754,3.6807,3.6736,3.6736,3.675,3.6871,3.6884,3.6895,3.68,3.6801,3.6803,3.687,0,3.6554,3.6609,3.6606,3.6659,3.6686,3.6672,3.67,3.6715,3.672,3.6744,3.6749,3.6777,3.6755,3.6764,3.6788,3.6795,3.6831,3.679,3.6829,3.683,3.6826,3.6906,3.6919,3.6982,3.6879,3.688,3.6881,0,3.663,3.665,3.6706,3.6722,3.6733,3.6758,3.6783,3.6805,3.6823,3.6825,3.6841,3.6835,3.687,3.6841,3.6891,3.6863,3.6878,3.6884,3.6887,3.6892,3.686,3.6915,3.7002,3.7013,3.6895,3.6894,3.6893,0,3.6682,3.6723,3.6762,3.6772,3.6791,3.681,3.6819,3.6835,3.6851,3.6873,3.6884,3.6909,3.6924,3.6944,3.6945,3.6924,3.6996,3.6967,3.7001,3.7001,3.7018,3.7017,3.7111,3.7024,3.7024,3.7024,3.7024,0,3.675,3.6785,3.6786,3.6811,3.6851,3.6847,3.6887,3.6895,3.6909,3.6936,3.6925,3.6951,3.695,3.6977,3.6978,3.702,3.7026,3.703,3.703,3.7032,3.7032,3.7044,3.704,3.7027,3.7026,3.7026,3.7025,0,3.6815,3.6817,3.686,3.6874,3.6879,3.6908,3.6922,3.6946,3.695,3.6984,3.6992,3.6999,3.703,3.7033,3.7069,3.707,3.7122,3.7116,3.7116,3.7116,3.715,3.7148,3.7256,3.7271,3.7173,3.7174,3.7174,0,3.6859,3.6886,3.6904,3.6921,3.6931,3.6959,3.6976,3.6974,3.6992,3.7015,3.7037,3.7067,3.7091,3.7142,3.7151,3.7179,3.7176,3.7212,3.718,3.7182,3.7179,3.7178,3.7182,3.7218,3.7219,3.722,3.7221,0,3.6938,3.6938,3.6962,3.6988,3.7008,3.7028,3.7047,3.7062,3.7062,3.7084,3.7115,3.7134,3.7171,3.7202,3.723,3.7241,3.7233,3.7231,3.7241,3.7244,3.7243,3.7247,3.7135,3.7229,3.7228,3.7227,3.7227,3.7227,3.6996,3.702,3.7037,3.7065,3.7079,3.7097,3.7122,3.7129,3.7155,3.7185,3.7182,3.7218,3.7237,3.7274,3.7287,3.7316,3.7304,3.7317,3.7321,3.7325,3.733,3.7237,3.7321,3.732,3.732,3.732,3.732,0,3.7076,3.7086,3.7112,3.7139,3.7162,3.715,3.7171,3.7192,3.7223,3.7241,3.7265,3.7303,3.7333,3.7345,3.7375,3.7396,3.7393,3.7404,3.7404,3.7407,3.7337,3.7327,3.7407,3.7407,3.7407,3.7407,3.7406,3.7406,3.712,3.7162,3.7164,3.7214,3.7224,3.7259,3.7272,3.7289,3.7304,3.7346,3.7371,3.7379,3.7395,3.7427,3.7455,3.7458,3.747,3.7484,3.7485,3.742,3.7412,3.7403,3.7394,3.7486,3.7486,3.7553,3.7553,3.7554]},{"header":{"parameterUnit":"m.s-1","parameterCategory":1,"la1":30.2991,"la2":30.254,"lo1":-89.0895,"lo2":-89.0444,"dy":0.0017,"dx":0.0017,"nx":28,"ny":28,"refTime":"2025-01-01T03:00:00:Z","depth":0,"parameterNumber":3,"parameterNumberName":"V-component_of_WINDS"},"data":[0,0,0,0,0,0,0,0,0,0,0,0,0,0,0,0,0,0,0,0,0,0,0,0,0,0,0,0,0,0,0,0,0,0,0,0,0,0,0,0,0,0,0,0,0,0,0,0,0,0,0,0,0,0,0,0,0,0,-0.3182,-0.318,0,-0.3006,-0.3004,-0.3002,-0.3009,-0.3012,-0.3014,-0.3017,-0.2834,-0.2827,-0.282,0,0,0,0,0,0,0,0,0,0,0,0,0,-0.3522,-0.3515,-0.3182,-0.318,-0.3178,-0.3007,-0.3004,-0.3002,-0.3009,-0.3012,-0.3015,-0.3018,-0.2836,-0.2828,-0.2819,0,0,0,0,0,0,0,0,0,0,0,0,0,-0.3363,-0.3513,-0.3183,-0.3161,-0.3157,-0.3007,-0.3004,-0.3001,-0.3008,-0.3012,-0.3016,-0.3019,-0.2839,-0.2828,-0.2818,-0.2677,0,0,-0.2785,-0.278,0,0,0,0,0,0,0,0,-0.3372,-0.335,-0.3166,-0.3162,-0.3158,-0.3034,-0.3057,-0.2893,-0.3007,-0.3065,-0.3017,-0.3021,-0.2897,-0.2882,-0.2841,-0.2669,-0.2661,-0.2784,-0.2777,-0.2773,-0.277,0,0,0,0,0,0,0,-0.3383,-0.3358,-0.3113,-0.3163,-0.3158,-0.3159,-0.3141,-0.3026,-0.2962,-0.306,-0.306,-0.3039,-0.2895,-0.2851,-0.2836,-0.2658,-0.2784,-0.2775,-0.2768,-0.2764,-0.2364,-0.236,0,0,0,0,0,0,-0.3399,-0.3367,-0.3118,-0.3107,-0.3276,-0.315,-0.3129,-0.307,-0.2963,-0.2951,-0.3036,-0.304,-0.2868,-0.2849,-0.283,-0.2659,-0.2773,-0.2763,-0.2757,-0.2368,-0.2363,-0.2358,0,0,0,0,0,0,-0.3406,-0.3377,-0.3125,-0.3237,-0.3205,-0.314,-0.3073,-0.3064,-0.302,-0.2946,-0.2934,-0.3003,-0.287,-0.2845,-0.2716,-0.2653,-0.2758,-0.2748,-0.2373,-0.2366,-0.2361,-0.2317,0,0,0,0,0,0,-0.3416,-0.3379,-0.3325,-0.3236,-0.3199,-0.3014,-0.3069,-0.3058,-0.3002,-0.3005,-0.2911,-0.2899,-0.2871,-0.2732,-0.2705,-0.264,-0.274,-0.2378,-0.237,-0.2363,-0.2323,-0.231,-0.2298,0,0,0,0,0,-0.3428,-0.3319,-0.3323,-0.3292,-0.3131,-0.3011,-0.2989,-0.296,-0.2997,-0.2942,-0.2895,-0.2902,-0.2665,-0.2719,-0.2688,-0.2619,-0.2382,-0.2372,-0.2363,-0.2329,-0.2312,-0.2298,0,0,0,0,0,0,-0.34,-0.3307,-0.331,-0.3168,-0.3098,-0.3012,-0.2942,-0.2943,-0.2859,-0.2866,-0.2832,-0.2811,-0.2682,-0.2638,-0.2699,-0.2479,-0.2528,-0.2512,-0.2512,-0.2496,-0.2483,-0.2496,-0.2731,0,0,0,0,0,-0.3378,-0.329,-0.3212,-0.3095,-0.3059,-0.3007,-0.2953,-0.2937,-0.2862,-0.2832,-0.2775,-0.2701,-0.261,-0.255,-0.2462,-0.2317,-0.2297,-0.2255,-0.2243,-0.2233,-0.2219,-0.2141,-0.2121,-0.2328,-0.2328,-0.2328,0,0,-0.3331,-0.3269,-0.3214,-0.3088,-0.3031,-0.2939,-0.2981,-0.2882,-0.2814,-0.2816,-0.2691,-0.2647,-0.2562,-0.2425,-0.2362,-0.2384,-0.2158,-0.2221,-0.2213,-0.2205,-0.2129,-0.211,-0.2092,-0.2321,-0.2322,-0.2323,0,0,-0.3198,-0.3142,-0.3039,-0.2982,-0.2896,-0.2862,-0.2838,-0.2752,-0.2723,-0.2598,-0.2598,-0.2516,-0.236,-0.23,-0.2249,-0.2096,-0.21,-0.2069,-0.2002,-0.1926,-0.1909,-0.1895,-0.1841,-0.1822,-0.2055,-0.2055,-0.2055,0,-0.3149,-0.3012,-0.2985,-0.2886,-0.2831,-0.2831,-0.2726,-0.2672,-0.2561,-0.2523,-0.255,-0.2355,-0.2298,-0.2148,-0.2111,-0.2069,-0.204,-0.2079,-0.1914,-0.1899,-0.1885,-0.1834,-0.1813,-0.2052,-0.2052,-0.2053,-0.2053,0,-0.2957,-0.2862,-0.2789,-0.2684,-0.2621,-0.2519,-0.2477,-0.2416,-0.2406,-0.2369,-0.2242,-0.2174,-0.2073,-0.2036,-0.2024,-0.1884,-0.1901,-0.1922,-0.197,-0.1863,-0.1814,-0.1794,-0.2047,-0.2049,-0.205,-0.205,0,0,-0.28,-0.2684,-0.2657,-0.2611,-0.2517,-0.2443,-0.2342,-0.2245,-0.2193,-0.2118,-0.2032,-0.1901,-0.192,-0.1863,-0.1845,-0.1778,-0.1663,-0.1806,-0.1804,-0.1783,-0.1505,-0.1491,-0.1468,-0.1665,-0.1661,-0.1658,-0.1513,0,-0.2657,-0.2479,-0.2453,-0.2296,-0.2209,-0.2209,-0.2121,-0.2054,-0.2018,-0.1938,-0.1897,-0.1805,-0.1837,-0.1803,-0.1737,-0.1691,-0.1607,-0.1701,-0.1586,-0.1582,-0.1607,-0.1442,-0.1426,-0.1292,-0.1493,-0.149,-0.1488,0,-0.2467,-0.2388,-0.2223,-0.2144,-0.2106,-0.2027,-0.1937,-0.1861,-0.1786,-0.1764,-0.1701,-0.1692,-0.1588,-0.1642,-0.1498,-0.1563,-0.1514,-0.1485,-0.1479,-0.1467,-0.1528,-0.1426,-0.1248,-0.1228,-0.1457,-0.1459,-0.1462,0,-0.237,-0.2222,-0.2105,-0.2065,-0.1969,-0.1914,-0.1871,-0.18,-0.1744,-0.1665,-0.1629,-0.1538,-0.1488,-0.1419,-0.1385,-0.1428,-0.1244,-0.1295,-0.1223,-0.1224,-0.1184,-0.1187,-0.0996,-0.1152,-0.1153,-0.1153,-0.1154,0,-0.2213,-0.2112,-0.206,-0.1988,-0.1875,-0.1846,-0.1735,-0.1694,-0.1631,-0.1551,-0.1545,-0.147,-0.143,-0.1349,-0.1323,-0.1208,-0.1185,-0.1165,-0.1159,-0.1166,-0.1168,-0.1133,-0.1142,-0.1148,-0.1149,-0.115,-0.1151,0,-0.2085,-0.2046,-0.1918,-0.1839,-0.1817,-0.1737,-0.1669,-0.1599,-0.1565,-0.1463,-0.1438,-0.1383,-0.1287,-0.1248,-0.113,-0.1112,-0.0981,-0.0982,-0.1007,-0.1005,-0.0936,-0.0943,-0.0715,-0.0684,-0.0861,-0.086,-0.0858,0,-0.1987,-0.191,-0.1824,-0.177,-0.1727,-0.164,-0.1584,-0.1553,-0.1494,-0.1404,-0.1345,-0.125,-0.1172,-0.102,-0.0969,-0.0879,-0.0878,-0.0805,-0.0865,-0.0874,-0.0878,-0.0883,-0.0876,-0.0794,-0.0792,-0.0791,-0.0789,0,-0.1819,-0.1804,-0.1724,-0.1637,-0.157,-0.1499,-0.1431,-0.1387,-0.1346,-0.128,-0.1183,-0.1123,-0.1005,-0.0911,-0.0819,-0.0774,-0.0775,-0.0771,-0.075,-0.0756,-0.0774,-0.0764,-0.0977,-0.0776,-0.0778,-0.0779,-0.0779,-0.078,-0.1703,-0.1635,-0.1565,-0.1475,-0.1421,-0.1358,-0.1289,-0.1246,-0.1165,-0.1067,-0.1054,-0.0951,-0.0879,-0.0756,-0.0708,-0.0627,-0.0646,-0.0615,-0.0607,-0.06,-0.0596,-0.0787,-0.061,-0.061,-0.0611,-0.0611,-0.0611,0,-0.1535,-0.149,-0.1409,-0.1314,-0.1244,-0.1253,-0.1178,-0.1118,-0.1028,-0.0962,-0.0886,-0.0776,-0.0685,-0.0629,-0.0538,-0.0484,-0.0482,-0.0461,-0.0464,-0.0454,-0.0584,-0.0612,-0.0464,-0.0464,-0.0464,-0.0464,-0.0464,-0.0464,-0.144,-0.1326,-0.1303,-0.1162,-0.1118,-0.1018,-0.0974,-0.0916,-0.0863,-0.0741,-0.0666,-0.063,-0.0568,-0.0473,-0.039,-0.0376,-0.0343,-0.0321,-0.0308,-0.043,-0.0445,-0.046,-0.0486,-0.0314,-0.0314,-0.0185,-0.0184,-0.0183]}]]